RCH8968 OMAA-OBBI

Flight info

Callsign RCH8968
Flight time 0h 45m
Altitude 26000
Route BOSEV N563 IMGUX P699 ORMID M556 ORDIG
Aircraft C17/H-SDE1E2FGHIJ5RTUWXY/LB1D1

Departure

Time 2026-05-08 14:41
Airport Zayed International Airport (OMAA)

Arrival

Time 2026-05-08 15:27
Airport Bahrain International Airport (OBBI)
Time Latitude Longitude Altitude Speed Heading
2026-05-08 14:20 24.43016 54.66333 92 ft 0 kts 36°
2026-05-08 14:24 24.44767 54.64261 92 ft 0 kts 36°
2026-05-08 14:25 24.43016 54.66334 92 ft 0 kts 36°
2026-05-08 14:33 24.43009 54.66329 92 ft 2 kts 36°
2026-05-08 14:33 24.42983 54.66308 92 ft 6 kts 36°
2026-05-08 14:33 24.42951 54.66269 92 ft 7 kts 83°
2026-05-08 14:34 24.42969 54.66225 92 ft 0 kts 123°
2026-05-08 14:35 24.42969 54.66226 92 ft 0 kts 124°
2026-05-08 14:36 24.42963 54.66236 92 ft 2 kts 123°
2026-05-08 14:36 24.42962 54.66237 92 ft 0 kts 123°
2026-05-08 14:39 24.42931 54.66287 92 ft 31 kts 128°
2026-05-08 14:39 24.42798 54.66472 92 ft 30 kts 126°
2026-05-08 14:39 24.42673 54.66651 92 ft 28 kts 129°
2026-05-08 14:39 24.42561 54.66805 92 ft 25 kts 129°
2026-05-08 14:40 24.42468 54.66934 92 ft 14 kts 149°
2026-05-08 14:40 24.42374 54.66885 92 ft 16 kts 219°
2026-05-08 14:40 24.42312 54.66816 92 ft 11 kts 212°
2026-05-08 14:40 24.42303 54.66810 92 ft 1 kts 213°
2026-05-08 14:41 24.42205 54.66739 92 ft 29 kts 217°
2026-05-08 14:41 24.42178 54.66703 92 ft 0 kts 302°
2026-05-08 14:41 24.42390 54.66416 94 ft 99 kts 304°
2026-05-08 14:41 24.42783 54.65781 812 ft 96 kts 310°
2026-05-08 14:42 24.43221 54.65252 1485 ft 103 kts 311°
2026-05-08 14:42 24.43699 54.64643 2192 ft 112 kts 308°
2026-05-08 14:42 24.44149 54.63974 2977 ft 115 kts 301°
2026-05-08 14:42 24.44554 54.63247 3757 ft 118 kts 297°
2026-05-08 14:43 24.44960 54.62470 4532 ft 124 kts 301°
2026-05-08 14:43 24.45471 54.61713 5358 ft 128 kts 308°
2026-05-08 14:43 24.46028 54.60981 6152 ft 133 kts 306°
2026-05-08 14:43 24.46581 54.60181 6986 ft 135 kts 303°
2026-05-08 14:44 24.47098 54.59346 7816 ft 137 kts 300°
2026-05-08 14:44 24.47578 54.58479 8636 ft 138 kts 298°
2026-05-08 14:44 24.48032 54.57584 9441 ft 139 kts 298°
2026-05-08 14:44 24.48529 54.56687 10239 ft 140 kts 303°
2026-05-08 14:45 24.49102 54.55860 11004 ft 141 kts 311°
2026-05-08 14:45 24.49791 54.55095 11775 ft 142 kts 319°
2026-05-08 14:45 24.50547 54.54427 12516 ft 143 kts 319°
2026-05-08 14:45 24.51257 54.53693 13225 ft 144 kts 313°
2026-05-08 14:46 24.51914 54.52879 13901 ft 147 kts 309°
2026-05-08 14:46 24.52571 54.52023 14574 ft 149 kts 309°
2026-05-08 14:46 24.53231 54.51149 15259 ft 151 kts 308°
2026-05-08 14:46 24.53892 54.50261 15913 ft 153 kts 307°
2026-05-08 14:47 24.54554 54.49355 16535 ft 156 kts 307°
2026-05-08 14:47 24.55214 54.48438 17163 ft 157 kts 306°
2026-05-08 14:47 24.55883 54.47492 17764 ft 159 kts 305°
2026-05-08 14:47 24.56550 54.46532 18344 ft 161 kts 304°
2026-05-08 14:48 24.57216 54.45556 18929 ft 162 kts 304°
2026-05-08 14:48 24.57893 54.44538 19382 ft 173 kts 302°
2026-05-08 14:48 24.58604 54.43418 19840 ft 185 kts 303°
2026-05-08 14:48 24.59459 54.42173 19738 ft 236 kts 306°
2026-05-08 14:49 24.60603 54.40578 19534 ft 289 kts 307°
2026-05-08 14:49 24.61894 54.38798 20222 ft 305 kts 307°
2026-05-08 14:49 24.63249 54.36914 20855 ft 323 kts 306°
2026-05-08 14:49 24.64663 54.34930 21403 ft 341 kts 306°
2026-05-08 14:50 24.66141 54.32838 21897 ft 360 kts 306°
2026-05-08 14:50 24.67717 54.30599 22345 ft 378 kts 306°
2026-05-08 14:50 24.69353 54.28277 22726 ft 397 kts 306°
2026-05-08 14:50 24.71091 54.25815 23055 ft 415 kts 306°
2026-05-08 14:51 24.72880 54.23285 23361 ft 431 kts 306°
2026-05-08 14:51 24.74764 54.20622 23662 ft 446 kts 306°
2026-05-08 14:51 24.76690 54.17898 23939 ft 460 kts 306°
2026-05-08 14:51 24.78683 54.15079 24197 ft 473 kts 306°
2026-05-08 14:52 24.80699 54.12223 24431 ft 484 kts 306°
2026-05-08 14:52 24.84714 54.06118 24931 ft 493 kts 301°
2026-05-08 14:52 24.86539 54.02932 25132 ft 495 kts 300°
2026-05-08 14:53 24.88326 53.99746 25363 ft 496 kts 299°
2026-05-08 14:53 24.90149 53.96479 25605 ft 497 kts 299°
2026-05-08 14:53 24.91957 53.93239 25751 ft 498 kts 299°
2026-05-08 14:53 24.93757 53.90018 25756 ft 498 kts 300°
2026-05-08 14:54 24.95567 53.86783 25761 ft 498 kts 300°
2026-05-08 14:54 24.97397 53.83509 25763 ft 498 kts 299°
2026-05-08 14:54 24.99212 53.80288 25763 ft 498 kts 300°
2026-05-08 14:54 25.01192 53.77138 25765 ft 498 kts 304°
2026-05-08 14:55 25.03352 53.74185 25766 ft 499 kts 308°
2026-05-08 14:55 25.05702 53.71418 25766 ft 499 kts 312°
2026-05-08 14:55 25.08189 53.68718 25766 ft 499 kts 313°
2026-05-08 14:55 25.10693 53.66055 25764 ft 497 kts 313°
2026-05-08 14:56 25.13157 53.63454 25765 ft 496 kts 313°
2026-05-08 14:56 25.15641 53.60823 25765 ft 495 kts 313°
2026-05-08 14:56 25.18117 53.58183 25765 ft 495 kts 313°
2026-05-08 14:56 25.20570 53.55554 25765 ft 495 kts 313°
2026-05-08 14:57 25.23042 53.52895 25765 ft 495 kts 313°
2026-05-08 14:57 25.25486 53.50262 25765 ft 495 kts 313°
2026-05-08 14:57 25.27960 53.47596 25765 ft 495 kts 313°
2026-05-08 14:57 25.30423 53.44942 25766 ft 495 kts 313°
2026-05-08 14:58 25.32904 53.42269 25767 ft 495 kts 313°
2026-05-08 14:58 25.35357 53.39623 25772 ft 497 kts 313°
2026-05-08 14:58 25.37836 53.36946 25773 ft 502 kts 313°
2026-05-08 14:58 25.40279 53.34308 25777 ft 505 kts 312°
2026-05-08 14:59 25.42850 53.31520 25778 ft 509 kts 312°
2026-05-08 14:59 25.47706 53.25824 25779 ft 509 kts 303°
2026-05-08 14:59 25.49676 53.22591 25886 ft 507 kts 300°
2026-05-08 15:00 25.51574 53.19388 25930 ft 496 kts 298°
2026-05-08 15:00 25.52924 53.15951 25831 ft 487 kts 281°
2026-05-08 15:00 25.53323 53.12249 25816 ft 482 kts 270°
2026-05-08 15:00 25.53479 53.08537 25800 ft 483 kts 271°
2026-05-08 15:01 25.53807 53.04870 25794 ft 484 kts 275°
2026-05-08 15:01 25.54369 53.01199 25792 ft 485 kts 278°
2026-05-08 15:01 25.55079 52.97535 25791 ft 485 kts 280°
2026-05-08 15:01 25.55948 52.93930 25790 ft 485 kts 284°
2026-05-08 15:02 25.57062 52.90411 25790 ft 485 kts 288°
2026-05-08 15:02 25.58422 52.86988 25791 ft 486 kts 292°
2026-05-08 15:02 25.59973 52.83678 25791 ft 485 kts 294°
2026-05-08 15:02 25.61568 52.80418 25791 ft 484 kts 295°
2026-05-08 15:03 25.63179 52.77151 25790 ft 483 kts 295°
2026-05-08 15:03 25.64778 52.73900 25789 ft 483 kts 295°
2026-05-08 15:03 25.66389 52.70609 25789 ft 482 kts 295°
2026-05-08 15:03 25.67995 52.67319 25789 ft 482 kts 295°
2026-05-08 15:04 25.69590 52.64045 25789 ft 482 kts 295°
2026-05-08 15:04 25.71184 52.60767 25789 ft 482 kts 295°
2026-05-08 15:04 25.72785 52.57472 25789 ft 482 kts 295°
2026-05-08 15:04 25.74383 52.54178 25789 ft 482 kts 295°
2026-05-08 15:05 25.75973 52.50897 25789 ft 482 kts 294°
2026-05-08 15:05 25.77522 52.47625 25789 ft 482 kts 294°
2026-05-08 15:05 25.79059 52.44310 25789 ft 482 kts 294°
2026-05-08 15:05 25.80602 52.40968 25789 ft 482 kts 294°
2026-05-08 15:06 25.82133 52.37656 25789 ft 482 kts 294°
2026-05-08 15:06 25.83638 52.34407 25790 ft 482 kts 293°
2026-05-08 15:06 25.85251 52.31030 25790 ft 483 kts 295°
2026-05-08 15:06 25.87051 52.27810 25791 ft 485 kts 300°
2026-05-08 15:07 25.89051 52.24777 25791 ft 488 kts 304°
2026-05-08 15:07 25.91246 52.21920 25792 ft 490 kts 307°
2026-05-08 15:07 25.93553 52.19107 25791 ft 490 kts 308°
2026-05-08 15:07 25.95872 52.16328 25790 ft 490 kts 308°
2026-05-08 15:08 25.98197 52.13547 25790 ft 490 kts 308°
2026-05-08 15:08 25.99759 52.11673 25790 ft 490 kts 308°
2026-05-08 15:08 26.02824 52.07980 25789 ft 490 kts 308°
2026-05-08 15:08 26.05155 52.05159 25789 ft 490 kts 308°
2026-05-08 15:09 26.07436 52.02392 25789 ft 490 kts 308°
2026-05-08 15:09 26.09749 51.99586 25789 ft 490 kts 308°
2026-05-08 15:09 26.12065 51.96786 25788 ft 490 kts 308°
2026-05-08 15:09 26.14400 51.93975 25789 ft 490 kts 308°
2026-05-08 15:10 26.16696 51.91204 25789 ft 490 kts 308°
2026-05-08 15:10 26.19011 51.88399 25789 ft 490 kts 308°
2026-05-08 15:10 26.21333 51.85576 25789 ft 490 kts 308°
2026-05-08 15:10 26.23497 51.82681 25789 ft 487 kts 303°
2026-05-08 15:11 26.25454 51.79594 25791 ft 484 kts 299°
2026-05-08 15:11 26.27146 51.76407 25795 ft 480 kts 294°
2026-05-08 15:11 26.28673 51.73096 25799 ft 479 kts 293°
2026-05-08 15:11 26.30155 51.69761 25805 ft 478 kts 292°
2026-05-08 15:12 26.31624 51.66430 25811 ft 477 kts 292°
2026-05-08 15:12 26.33088 51.63125 25818 ft 477 kts 292°
2026-05-08 15:12 26.34555 51.59826 25826 ft 476 kts 292°
2026-05-08 15:12 26.36028 51.56518 25832 ft 475 kts 292°
2026-05-08 15:13 26.37434 51.53156 25837 ft 474 kts 290°
2026-05-08 15:13 26.38659 51.49799 25840 ft 472 kts 287°
2026-05-08 15:13 26.39789 51.46350 25842 ft 472 kts 286°
2026-05-08 15:13 26.40903 51.42869 25843 ft 472 kts 286°
2026-05-08 15:14 26.42016 51.39373 25715 ft 465 kts 286°
2026-05-08 15:14 26.43089 51.36006 25033 ft 457 kts 286°
2026-05-08 15:14 26.44154 51.32657 23611 ft 463 kts 286°
2026-05-08 15:14 26.44931 51.29159 22159 ft 461 kts 275°
2026-05-08 15:15 26.44959 51.25629 21287 ft 448 kts 263°
2026-05-08 15:15 26.44310 51.22261 20420 ft 438 kts 251°
2026-05-08 15:15 26.43224 51.19096 19477 ft 432 kts 248°
2026-05-08 15:15 26.42092 51.16027 18474 ft 428 kts 247°
2026-05-08 15:16 26.40963 51.13013 17487 ft 424 kts 247°
2026-05-08 15:16 26.39836 51.10003 16512 ft 420 kts 247°
2026-05-08 15:16 26.38722 51.07010 15548 ft 416 kts 248°
2026-05-08 15:16 26.38055 51.03910 14667 ft 411 kts 267°
2026-05-08 15:17 26.38347 51.00771 14099 ft 399 kts 280°
2026-05-08 15:17 26.38914 50.97774 13436 ft 391 kts 282°
2026-05-08 15:17 26.39485 50.94851 12782 ft 384 kts 282°
2026-05-08 15:17 26.40036 50.91959 12163 ft 377 kts 281°
2026-05-08 15:18 26.40559 50.89120 11589 ft 369 kts 281°
2026-05-08 15:18 26.41060 50.86344 11051 ft 360 kts 281°
2026-05-08 15:18 26.41542 50.83638 10551 ft 352 kts 281°
2026-05-08 15:18 26.42008 50.80993 10045 ft 344 kts 281°
2026-05-08 15:19 26.42468 50.78363 9526 ft 337 kts 281°
2026-05-08 15:19 26.42911 50.75824 9072 ft 329 kts 281°
2026-05-08 15:19 26.43335 50.73388 8709 ft 319 kts 281°
2026-05-08 15:19 26.43753 50.70981 8166 ft 298 kts 281°
2026-05-08 15:20 26.44133 50.68780 7714 ft 276 kts 281°
2026-05-08 15:20 26.44490 50.66714 7091 ft 272 kts 281°
2026-05-08 15:20 26.44845 50.64653 6334 ft 267 kts 281°
2026-05-08 15:20 26.45160 50.62646 5583 ft 264 kts 275°
2026-05-08 15:21 26.44831 50.60672 4736 ft 263 kts 244°
2026-05-08 15:21 26.43677 50.59113 3837 ft 262 kts 225°
2026-05-08 15:21 26.42356 50.57801 2943 ft 253 kts 225°
2026-05-08 15:21 26.41082 50.56535 2199 ft 239 kts 226°
2026-05-08 15:22 26.39900 50.55326 1705 ft 220 kts 227°
2026-05-08 15:22 26.38851 50.54232 1504 ft 193 kts 228°
2026-05-08 15:22 26.37830 50.53342 1485 ft 189 kts 206°
2026-05-08 15:22 26.36439 50.53344 1490 ft 198 kts 167°
2026-05-08 15:23 26.33232 50.54502 1536 ft 199 kts 162°
2026-05-08 15:23 26.31942 50.55065 1532 ft 196 kts 156°
2026-05-08 15:23 26.30959 50.55990 1499 ft 176 kts 127°
2026-05-08 15:23 26.30352 50.57165 1063 ft 173 kts 115°
2026-05-08 15:24 26.29832 50.58351 748 ft 162 kts 114°
2026-05-08 15:24 26.29500 50.59460 658 ft 144 kts 98°
2026-05-08 15:24 26.29318 50.60549 651 ft 141 kts 98°
2026-05-08 15:24 26.29088 50.61611 736 ft 142 kts 103°
2026-05-08 15:25 26.28755 50.62658 863 ft 143 kts 112°
2026-05-08 15:25 26.28353 50.63691 937 ft 143 kts 111°
2026-05-08 15:25 26.27910 50.64686 1016 ft 144 kts 116°
2026-05-08 15:25 26.27443 50.65687 1137 ft 144 kts 118°
2026-05-08 15:26 26.26932 50.66652 1251 ft 145 kts 126°
2026-05-08 15:26 26.26119 50.67139 1065 ft 134 kts 201°
2026-05-08 15:26 26.25587 50.66488 602 ft 113 kts 282°
2026-05-08 15:26 26.25805 50.65626 290 ft 123 kts 297°
2026-05-08 15:27 26.26237 50.64843 46 ft 110 kts 306°
2026-05-08 15:27 26.26562 50.64282 12 ft 40 kts 302°
2026-05-08 15:27 26.26730 50.63994 12 ft 45 kts 304°
2026-05-08 15:27 26.26902 50.63689 12 ft 46 kts 303°
2026-05-08 15:28 26.26967 50.63474 12 ft 17 kts 210°
2026-05-08 15:28 26.26858 50.63407 12 ft 16 kts 212°
2026-05-08 15:28 26.26801 50.63365 12 ft 0 kts 214°
2026-05-08 15:28 26.26795 50.63361 12 ft 2 kts 212°
2026-05-08 15:29 26.26770 50.63343 12 ft 7 kts 212°
2026-05-08 15:29 26.26722 50.63309 12 ft 9 kts 212°
2026-05-08 15:29 26.26687 50.63284 12 ft 0 kts 212°